[[{"header":{"parameterUnit":"m.s-1","parameterCategory":1,"la1":30.2991,"la2":30.254,"lo1":-89.0895,"lo2":-89.0444,"dy":0.0017,"dx":0.0017,"nx":28,"ny":28,"refTime":"2024-04-12T21:00:00:Z","depth":0,"parameterNumber":2,"parameterNumberName":"U-component_of_WINDS"},"data":[0,0,0,0,0,0,0,0,0,0,0,0,0,0,0,0,0,0,0,0,0,0,0,0,0,0,0,0,0,0,0,0,0,0,0,0,0,0,0,0,0,0,0,0,0,0,0,0,0,0,0,0,0,0,0,0,0,0,1.52,1.5201,0,1.5258,1.5259,1.5259,1.5249,1.5248,1.5247,1.5246,1.5304,1.5306,1.5309,0,0,0,0,0,0,0,0,0,0,0,0,0,1.5077,1.5079,1.52,1.5201,1.5201,1.5258,1.5259,1.526,1.5249,1.5248,1.5247,1.5246,1.5303,1.5306,1.5309,0,0,0,0,0,0,0,0,0,0,0,0,0,1.5132,1.508,1.52,1.5203,1.5204,1.5258,1.5259,1.526,1.525,1.5248,1.5246,1.5245,1.5302,1.5306,1.5309,1.5363,0,0,1.5321,1.5322,0,0,0,0,0,0,0,0,1.5129,1.5137,1.5202,1.5203,1.5204,1.5245,1.5236,1.5294,1.525,1.5232,1.5246,1.5244,1.5285,1.529,1.5304,1.5366,1.5368,1.5321,1.5323,1.5325,1.5326,0,0,0,0,0,0,0,1.5125,1.5134,1.5223,1.5203,1.5204,1.5201,1.5207,1.5247,1.5267,1.5234,1.5233,1.524,1.5286,1.5301,1.5306,1.5369,1.5321,1.5324,1.5327,1.5328,1.5473,1.5475,0,0,0,0,0,0,1.5121,1.5131,1.5221,1.5225,1.5162,1.5204,1.5211,1.5233,1.5266,1.527,1.5241,1.5239,1.5295,1.5301,1.5308,1.537,1.5325,1.5328,1.533,1.5472,1.5474,1.5476,0,0,0,0,0,0,1.5118,1.5129,1.5219,1.5178,1.5189,1.5208,1.5233,1.5235,1.5251,1.5272,1.5275,1.5254,1.5294,1.5302,1.5349,1.5372,1.533,1.5333,1.547,1.5472,1.5475,1.5497,0,0,0,0,0,0,1.5115,1.5128,1.5149,1.5178,1.5191,1.526,1.5234,1.5237,1.5257,1.5255,1.5284,1.5288,1.5294,1.5343,1.5352,1.5376,1.5336,1.5468,1.5471,1.5474,1.5494,1.55,1.5505,0,0,0,0,0,1.511,1.5154,1.5151,1.5162,1.5218,1.5261,1.5268,1.5275,1.5259,1.528,1.5293,1.5287,1.5368,1.5348,1.5358,1.5384,1.5466,1.547,1.5474,1.5492,1.5499,1.5505,0,0,0,0,0,0,1.5127,1.5158,1.5154,1.5209,1.5232,1.5259,1.5286,1.5283,1.5311,1.5308,1.5314,1.5321,1.5367,1.538,1.5357,1.5436,1.5415,1.5421,1.5425,1.5432,1.5437,1.5432,1.5339,0,0,0,0,0,1.5137,1.517,1.5195,1.524,1.5252,1.5267,1.5286,1.5289,1.5313,1.5323,1.534,1.5363,1.5394,1.5414,1.5444,1.5496,1.5501,1.5519,1.5524,1.5528,1.5533,1.5559,1.5566,1.5488,1.5488,1.5488,0,0,1.5158,1.5179,1.5199,1.5244,1.5263,1.5295,1.5276,1.5312,1.5335,1.5329,1.5372,1.5386,1.5412,1.5461,1.5483,1.5473,1.5556,1.5533,1.5536,1.5538,1.5563,1.5571,1.5577,1.549,1.549,1.5489,0,0,1.5213,1.5233,1.5272,1.529,1.5319,1.5328,1.5337,1.5364,1.5373,1.5417,1.5412,1.544,1.5493,1.5511,1.5527,1.5587,1.558,1.5596,1.5623,1.5648,1.5654,1.566,1.5678,1.5685,1.5601,1.5601,1.5601,0,1.5235,1.5285,1.5292,1.5327,1.5346,1.5342,1.538,1.5397,1.5434,1.5446,1.5435,1.55,1.5518,1.5569,1.5583,1.5598,1.5606,1.5592,1.5653,1.5659,1.5664,1.5681,1.5689,1.5602,1.5602,1.5602,1.5602,0,1.5309,1.5344,1.5371,1.5406,1.5428,1.5465,1.5476,1.5497,1.5498,1.5508,1.5551,1.5572,1.5605,1.5618,1.5619,1.5669,1.5661,1.5652,1.5631,1.5673,1.5689,1.5696,1.5605,1.5604,1.5604,1.5603,0,0,1.5376,1.5413,1.5423,1.5437,1.5468,1.5494,1.5529,1.5561,1.5578,1.5603,1.5631,1.5676,1.5666,1.5684,1.5688,1.571,1.5752,1.5697,1.5698,1.5705,1.5805,1.5811,1.5818,1.5749,1.575,1.5751,1.5802,0,1.5431,1.5494,1.5501,1.5557,1.5587,1.5583,1.5613,1.5634,1.5644,1.567,1.5681,1.5711,1.5698,1.5708,1.5731,1.5742,1.5772,1.5739,1.5773,1.5774,1.5765,1.5828,1.5834,1.5881,1.5809,1.581,1.5811,0,1.5504,1.553,1.5589,1.5613,1.5626,1.5653,1.5681,1.5708,1.573,1.5736,1.5755,1.5755,1.579,1.5768,1.5815,1.5792,1.5807,1.5815,1.5816,1.5818,1.5794,1.5829,1.5896,1.5902,1.5822,1.5821,1.582,0,1.5543,1.5594,1.5635,1.5648,1.5677,1.5696,1.5709,1.5731,1.5748,1.5773,1.5784,1.5813,1.5828,1.5849,1.5856,1.584,1.5901,1.5881,1.5905,1.5904,1.5916,1.5915,1.5985,1.5929,1.5929,1.5929,1.5929,0,1.5603,1.5639,1.5652,1.5677,1.5716,1.5723,1.5761,1.5773,1.5791,1.5817,1.5816,1.584,1.5848,1.5873,1.5879,1.5915,1.5923,1.5926,1.5927,1.5925,1.5925,1.5934,1.593,1.5931,1.5931,1.593,1.593,0,1.5653,1.5664,1.5708,1.5732,1.5739,1.5766,1.5786,1.5809,1.5818,1.5851,1.5859,1.5873,1.5902,1.5911,1.5947,1.595,1.5992,1.5991,1.5984,1.5983,1.6006,1.6003,1.6082,1.6091,1.6032,1.6032,1.6033,0,1.569,1.5717,1.5743,1.576,1.5774,1.5802,1.582,1.5827,1.5845,1.5872,1.5892,1.5921,1.5944,1.5991,1.6003,1.603,1.6028,1.6054,1.6032,1.6029,1.6025,1.6023,1.6024,1.6057,1.6058,1.6059,1.6059,0,1.5752,1.5756,1.5782,1.5809,1.5831,1.5853,1.5874,1.5888,1.5898,1.5918,1.5948,1.5966,1.6002,1.603,1.6056,1.6068,1.6064,1.6066,1.6072,1.607,1.6064,1.6065,1.5993,1.6064,1.6063,1.6063,1.6063,1.6062,1.5795,1.5817,1.5839,1.5867,1.5884,1.5903,1.5925,1.5937,1.5962,1.5991,1.5994,1.6026,1.6046,1.6081,1.6094,1.6118,1.611,1.612,1.6122,1.6124,1.6125,1.6062,1.6123,1.6123,1.6123,1.6123,1.6123,0,1.5855,1.5868,1.5894,1.5923,1.5945,1.5941,1.5963,1.5981,1.6009,1.6028,1.6051,1.6084,1.6111,1.6125,1.6151,1.6167,1.6166,1.6174,1.6172,1.6174,1.6131,1.6122,1.6174,1.6174,1.6174,1.6174,1.6174,1.6174,1.5888,1.5926,1.5931,1.5976,1.5989,1.602,1.6033,1.605,1.6065,1.6102,1.6124,1.6133,1.615,1.6177,1.6201,1.6204,1.6213,1.6221,1.6223,1.6183,1.6177,1.6172,1.6163,1.6223,1.6223,1.6263,1.6264,1.6264]},{"header":{"parameterUnit":"m.s-1","parameterCategory":1,"la1":30.2991,"la2":30.254,"lo1":-89.0895,"lo2":-89.0444,"dy":0.0017,"dx":0.0017,"nx":28,"ny":28,"refTime":"2024-04-12T21:00:00:Z","depth":0,"parameterNumber":3,"parameterNumberName":"V-component_of_WINDS"},"data":[0,0,0,0,0,0,0,0,0,0,0,0,0,0,0,0,0,0,0,0,0,0,0,0,0,0,0,0,0,0,0,0,0,0,0,0,0,0,0,0,0,0,0,0,0,0,0,0,0,0,0,0,0,0,0,0,0,0,2.2507,2.2507,0,2.2566,2.2567,2.2568,2.2544,2.2542,2.2541,2.254,2.2598,2.2601,2.2604,0,0,0,0,0,0,0,0,0,0,0,0,0,2.2368,2.237,2.2507,2.2508,2.2508,2.2566,2.2567,2.2568,2.2544,2.2542,2.2541,2.2539,2.2597,2.2601,2.2604,0,0,0,0,0,0,0,0,0,0,0,0,0,2.2428,2.2371,2.2507,2.2503,2.2504,2.2566,2.2567,2.2568,2.2544,2.2542,2.254,2.2538,2.2596,2.26,2.2605,2.2673,0,0,2.2618,2.262,0,0,0,0,0,0,0,0,2.2424,2.2433,2.2503,2.2504,2.2504,2.2546,2.254,2.2603,2.2545,2.2529,2.254,2.2537,2.2582,2.2588,2.2603,2.2676,2.2678,2.2618,2.2621,2.2623,2.2624,0,0,0,0,0,0,0,2.242,2.243,2.253,2.2504,2.2505,2.2497,2.2504,2.2552,2.2567,2.253,2.2529,2.2536,2.2582,2.2599,2.2605,2.2679,2.2618,2.2622,2.2625,2.2626,2.2808,2.281,0,0,0,0,0,0,2.2416,2.2427,2.2528,2.2532,2.2458,2.2502,2.2509,2.2534,2.2566,2.2569,2.2538,2.2535,2.2593,2.26,2.2607,2.2687,2.2623,2.2627,2.2629,2.2805,2.2808,2.2811,0,0,0,0,0,0,2.2414,2.2426,2.2526,2.2479,2.2491,2.2506,2.2535,2.2537,2.2554,2.2572,2.2574,2.2553,2.2592,2.26,2.2656,2.2689,2.2629,2.2632,2.2803,2.2806,2.2809,2.285,0,0,0,0,0,0,2.241,2.2425,2.2452,2.248,2.2494,2.2576,2.2537,2.2539,2.2562,2.2558,2.2586,2.2589,2.2591,2.265,2.2661,2.2694,2.2636,2.28,2.2804,2.2808,2.2845,2.2854,2.2861,0,0,0,0,0,2.2405,2.2461,2.2454,2.2466,2.2529,2.2578,2.2586,2.2587,2.2564,2.2591,2.2602,2.2588,2.2683,2.2656,2.2668,2.2702,2.2798,2.2803,2.2808,2.2842,2.2852,2.2861,0,0,0,0,0,0,2.2437,2.2465,2.2457,2.2525,2.2549,2.2574,2.2608,2.2599,2.263,2.2625,2.2625,2.2631,2.2688,2.2701,2.267,2.2769,2.2737,2.2745,2.2759,2.2769,2.2776,2.2772,2.2639,0,0,0,0,0,2.2452,2.2491,2.2513,2.257,2.2583,2.2593,2.2615,2.2614,2.2639,2.2649,2.2664,2.2689,2.2723,2.2747,2.278,2.2847,2.2851,2.2876,2.2884,2.289,2.2897,2.2931,2.2941,2.2827,2.2827,2.2827,0,0,2.2484,2.2503,2.2528,2.2577,2.2596,2.2635,2.2602,2.2646,2.2674,2.2655,2.2709,2.2721,2.2747,2.2808,2.2836,2.282,2.2929,2.2897,2.2902,2.2905,2.2937,2.2948,2.2957,2.2831,2.283,2.2829,0,0,2.256,2.258,2.2629,2.2648,2.2677,2.2683,2.2695,2.2721,2.2728,2.2782,2.2768,2.2801,2.2862,2.2881,2.2898,2.2979,2.2967,2.299,2.3031,2.3064,2.3073,2.3081,2.3108,2.3118,2.2997,2.2997,2.2997,0,2.2596,2.2655,2.2655,2.2699,2.272,2.2705,2.2753,2.2771,2.2809,2.2823,2.2806,2.288,2.2897,2.2961,2.2981,2.2996,2.3008,2.2987,2.3072,2.308,2.3087,2.3113,2.3123,2.2999,2.2999,2.2999,2.2998,0,2.2695,2.2736,2.2772,2.2809,2.2834,2.288,2.2885,2.291,2.2906,2.2913,2.2966,2.2986,2.3022,2.3037,2.3034,2.31,2.3089,2.3072,2.304,2.3101,2.3125,2.3135,2.3003,2.3002,2.3001,2.3001,0,0,2.2796,2.2831,2.2844,2.286,2.2889,2.292,2.2964,2.2999,2.302,2.3046,2.3081,2.3132,2.3115,2.3135,2.3133,2.3162,2.3223,2.3141,2.3142,2.3154,2.3294,2.3307,2.3319,2.3215,2.3216,2.3218,2.3292,0,2.2874,2.2952,2.2952,2.3023,2.306,2.3045,2.3082,2.3103,2.3111,2.3142,2.3149,2.3185,2.3161,2.3172,2.32,2.321,2.3251,2.3204,2.3246,2.3247,2.3239,2.3331,2.3345,2.3414,2.3301,2.3303,2.3304,0,2.2976,2.3005,2.308,2.3102,2.3117,2.3151,2.3182,2.3213,2.3235,2.3238,2.3259,2.3252,2.3295,2.3261,2.3319,2.3287,2.3304,2.331,2.3313,2.3317,2.3279,2.3336,2.3436,2.3446,2.3319,2.3318,2.3317,0,2.304,2.3098,2.315,2.3163,2.3191,2.3215,2.3227,2.3248,2.3268,2.3295,2.3307,2.3339,2.3356,2.3379,2.338,2.3356,2.3437,2.3404,2.3439,2.3439,2.3457,2.3456,2.356,2.3469,2.3469,2.3469,2.3469,0,2.3127,2.3173,2.3178,2.321,2.326,2.3259,2.3308,2.3318,2.3336,2.3368,2.3356,2.3386,2.3386,2.3416,2.3416,2.3462,2.347,2.3473,2.3472,2.3473,2.3473,2.3484,2.3479,2.3472,2.3471,2.347,2.347,0,2.3208,2.3213,2.3268,2.3289,2.3295,2.3331,2.3347,2.3377,2.3382,2.3422,2.3432,2.344,2.3474,2.3477,2.3517,2.3517,2.3573,2.3567,2.3565,2.3564,2.3598,2.3595,2.3713,2.3728,2.3628,2.3629,2.363,0,2.3263,2.3297,2.3321,2.3342,2.3355,2.3389,2.341,2.3409,2.343,2.3457,2.3482,2.3516,2.3542,2.3597,2.3606,2.3636,2.363,2.367,2.3635,2.3634,2.3629,2.3627,2.3629,2.3676,2.3677,2.3678,2.3679,0,2.3359,2.3359,2.339,2.342,2.3445,2.3469,2.3491,2.3509,2.351,2.3534,2.3569,2.359,2.363,2.3662,2.3691,2.3702,2.369,2.369,2.3699,2.3701,2.3697,2.3698,2.3583,2.3687,2.3686,2.3686,2.3685,2.3685,2.3428,2.3457,2.3478,2.3511,2.3527,2.3548,2.3576,2.3584,2.3613,2.3646,2.3643,2.3681,2.37,2.3738,2.375,2.3779,2.3766,2.378,2.3783,2.3787,2.3789,2.3693,2.3784,2.3784,2.3784,2.3784,2.3784,0,2.3522,2.3534,2.3565,2.3596,2.3622,2.3609,2.3632,2.3654,2.3688,2.3707,2.3733,2.3771,2.3802,2.3812,2.3842,2.3862,2.3858,2.387,2.3868,2.387,2.3801,2.3789,2.3873,2.3873,2.3873,2.3873,2.3873,2.3873,2.3574,2.3622,2.3625,2.368,2.3691,2.3729,2.3743,2.3761,2.3776,2.382,2.3845,2.3852,2.3867,2.3897,2.3923,2.3925,2.3936,2.3951,2.395,2.3885,2.3876,2.3867,2.3856,2.3953,2.3953,2.4018,2.4018,2.4019]}]]